Flag for USA

Past Weather in Houston Tower Site State Wildlife Area, Missouri, USA — Yesterday and Last 2 Weeks

Now
62 °F

Clear.


Feels Like: 62 °F
Forecast: 65 / 45 °F
Wind: 14 mph from Southwest

Location: Waynesville Regional Airport

Current Time: Mar 28, 2020 at 10:40:26 pm

Latest Report: Mar 28, 2020 at 9:56 pm


Visibility: 10 mi

Pressure: 29.67 "Hg

Humidity: 35%

Dew Point: 34 °F

Location of Houston Tower Site State Wildlife AreaLocation

Past Weather in Houston Tower Site State Wildlife Area — Graph

°F

Houston Tower Site State Wildlife Area Temperature Yesterday

Maximum temperature yesterday: 78 °F (at 1:56 pm)
Minimum temperature yesterday: 56 °F (at 4:56 am)
Average temperature yesterday: 66 °F

High & Low Weather Summary for the Past Weeks

 TemperatureHumidityPressure
High84 °F (Mar 26, 3:56 pm)100% (Mar 14, 12:56 pm)30.57 "Hg (Mar 14, 12:56 pm)
Low26 °F (Mar 21, 6:56 am)23% (Mar 28, 7:56 pm)29.54 "Hg (Mar 28, 4:56 pm)
Average48 °F86%30.08 "Hg
* Reported Mar 13 8:56 pm — Mar 28 8:56 pm, Houston Tower Site State Wildlife Area. Weather by CustomWeather, © 2020

Note: Actual official high and low records may vary slightly from our data, if they occured in-between our weather recording intervals... More about our weather records

Houston Tower Site State Wildlife Area Weather History for the Previous 24 Hours

Scroll right to see more
 ConditionsComfort  
Time TempWeatherWind HumidityBarometerVisibility
8:56 pm
Sat, Mar 28
64 °FClear.15 mph27%29.65 "Hg10 mi
7:56 pm66 °FClear.17 mph23%29.64 "Hg10 mi
6:56 pm69 °FSunny.14 mph29%29.60 "Hg10 mi
5:56 pm70 °FSunny.12 mph66%29.57 "Hg10 mi
4:56 pm72 °FPassing clouds.14 mph64%29.54 "Hg10 mi
3:56 pm73 °FScattered clouds.20 mph64%29.56 "Hg10 mi
2:56 pm72 °FBroken clouds.20 mph71%29.59 "Hg10 mi
2:27 pm68 °FPartly sunny.16 mph78%29.62 "Hg10 mi
1:56 pm67 °FDrizzle. Broken clouds.21 mph87%29.63 "Hg10 mi
12:56 pm67 °FBroken clouds.15 mph89%29.65 "Hg10 mi
12:05 pm66 °FSunny.16 mph94%29.63 "Hg10 mi
11:27 am64 °FPartly sunny.12 mph100%29.64 "Hg10 mi
11:20 am64 °FThundershowers. Fog.14 mph100%29.65 "Hg6 mi
11:09 am64 °FStrong thunderstorms. Fog.5 mph100%29.69 "Hg1 mi
10:34 am68 °FThundershowers. Sunny.9 mph78%29.67 "Hg10 mi
9:56 am69 °FPartly sunny.3 mph77%29.67 "Hg10 mi
8:56 am67 °FScattered clouds.6 mph84%29.67 "Hg10 mi
7:56 am64 °FScattered clouds.6 mph94%29.64 "Hg10 mi
6:56 am65 °FMostly cloudy.8 mph92%29.61 "Hg10 mi
5:56 am66 °FPassing clouds.9 mph89%29.62 "Hg10 mi
4:56 am65 °FClear.10 mph93%29.61 "Hg10 mi
3:56 am65 °FPassing clouds.9 mph92%29.61 "Hg10 mi
2:56 am67 °FPartly cloudy.9 mph84%29.64 "Hg10 mi
1:56 am66 °FPassing clouds.7 mph85%29.65 "Hg10 mi
12:56 am66 °FPassing clouds.7 mph87%29.66 "Hg10 mi
11:56 pm
Fri, Mar 27
69 °FPassing clouds.9 mph76%29.66 "Hg10 mi
10:56 pm69 °FPassing clouds.10 mph79%29.67 "Hg10 mi
Weather by CustomWeather, © 2020

See weather overview

Advertising